Time,TemperatureF,DewpointF,PressureIn,WindDirection,WindDirectionDegrees,WindSpeedMPH,WindSpeedGustMPH,Humidity,HourlyPrecipIn,Conditions,Clouds,dailyrainin,SoftwareType,DateUTC
2013-08-13 00:13:00,72.0,69.0,29.81,NW,305,3.0,7.0,89,0.00,,,0.00,,2013-08-13 04:13:00,
2013-08-13 00:23:00,72.0,66.0,29.80,NW,309,2.0,7.0,82,0.00,,,0.00,,2013-08-13 04:23:00,
2013-08-13 00:42:00,71.0,66.0,29.80,WSW,246,1.0,3.0,84,0.00,,,0.00,,2013-08-13 04:42:00,
2013-08-13 00:53:00,70.0,66.0,29.80,SW,231,0.0,2.0,86,0.00,,,0.00,,2013-08-13 04:53:00,
2013-08-13 01:12:00,70.0,66.0,29.80,NW,313,0.0,3.0,87,0.00,,,0.00,,2013-08-13 05:12:00,
2013-08-13 01:21:00,70.0,66.0,29.80,NNW,347,2.0,5.0,87,0.00,,,0.00,,2013-08-13 05:21:00,
2013-08-13 01:52:00,69.0,66.0,29.81,West,275,1.0,5.0,89,0.00,,,0.00,,2013-08-13 05:52:00,
2013-08-13 02:11:00,68.0,65.0,29.80,NW,305,0.0,1.0,91,0.00,,,0.00,,2013-08-13 06:11:00,
2013-08-13 02:21:00,68.0,66.0,29.80,North,6,0.0,3.0,92,0.00,,,0.00,,2013-08-13 06:21:00,
2013-08-13 02:42:00,67.0,65.0,29.81,North,8,0.0,3.0,93,0.00,,,0.00,,2013-08-13 06:42:00,
2013-08-13 02:53:00,67.0,65.0,29.80,NNW,342,0.0,4.0,94,0.00,,,0.00,,2013-08-13 06:53:00,
2013-08-13 03:12:00,66.0,64.0,29.80,WNW,302,1.0,5.0,94,0.00,,,0.00,,2013-08-13 07:12:00,
2013-08-13 03:21:00,66.0,65.0,29.79,NNW,345,1.0,7.0,95,0.00,,,0.00,,2013-08-13 07:21:00,
2013-08-13 03:42:00,66.0,65.0,29.79,WNW,302,1.0,6.0,95,0.00,,,0.00,,2013-08-13 07:42:00,
2013-08-13 03:52:00,66.0,65.0,29.80,WNW,290,0.0,4.0,95,0.00,,,0.00,,2013-08-13 07:52:00,
2013-08-13 04:11:00,66.0,65.0,29.80,NW,306,0.0,3.0,96,0.00,,,0.00,,2013-08-13 08:11:00,
2013-08-13 04:22:00,65.0,64.0,29.80,WNW,285,1.0,5.0,96,0.00,,,0.00,,2013-08-13 08:22:00,
2013-08-13 04:42:00,65.0,64.0,29.80,NW,312,0.0,6.0,96,0.00,,,0.00,,2013-08-13 08:42:00,
2013-08-13 04:52:00,65.0,64.0,29.80,West,280,0.0,3.0,96,0.00,,,0.00,,2013-08-13 08:52:00,
2013-08-13 05:11:00,64.0,63.0,29.81,WNW,300,0.0,2.0,96,0.00,,,0.00,,2013-08-13 09:11:00,
2013-08-13 05:22:00,64.0,63.0,29.81,WNW,300,1.0,4.0,96,0.00,,,0.00,,2013-08-13 09:22:00,
2013-08-13 05:43:00,64.0,63.0,29.81,North,352,0.0,4.0,96,0.00,,,0.00,,2013-08-13 09:43:00,
2013-08-13 05:54:00,64.0,63.0,29.82,WNW,283,0.0,4.0,96,0.00,,,0.00,,2013-08-13 09:54:00,
2013-08-13 06:12:00,64.0,63.0,29.82,WNW,291,0.0,4.0,96,0.00,,,0.00,,2013-08-13 10:12:00,
2013-08-13 06:23:00,64.0,63.0,29.82,NNW,340,0.0,3.0,96,0.00,,,0.00,,2013-08-13 10:23:00,
2013-08-13 06:42:00,63.0,62.0,29.83,NNE,16,1.0,7.0,96,0.00,,,0.00,,2013-08-13 10:42:00,
2013-08-13 06:53:00,63.0,62.0,29.84,NNE,26,2.0,6.0,95,0.00,,,0.00,,2013-08-13 10:53:00,
2013-08-13 07:11:00,63.0,61.0,29.85,North,360,4.0,6.0,94,0.00,,,0.00,,2013-08-13 11:11:00,
2013-08-13 07:22:00,63.0,61.0,29.85,North,352,3.0,9.0,93,0.00,,,0.00,,2013-08-13 11:22:00,
2013-08-13 07:42:00,62.0,60.0,29.85,NNE,33,3.0,10.0,92,0.00,,,0.00,,2013-08-13 11:42:00,
2013-08-13 07:52:00,62.0,60.0,29.86,North,8,3.0,11.0,92,0.00,,,0.00,,2013-08-13 11:52:00,
2013-08-13 08:12:00,62.0,59.0,29.86,North,358,5.0,10.0,91,0.00,,,0.00,,2013-08-13 12:12:00,
2013-08-13 08:21:00,62.0,59.0,29.87,NNW,338,4.0,9.0,91,0.00,,,0.00,,2013-08-13 12:21:00,
2013-08-13 08:42:00,63.0,60.0,29.87,NNE,23,6.0,9.0,90,0.00,,,0.00,,2013-08-13 12:42:00,
2013-08-13 08:52:00,63.0,60.0,29.88,NNW,335,5.0,10.0,89,0.00,,,0.00,,2013-08-13 12:52:00,
2013-08-13 09:11:00,63.0,59.0,29.89,NE,39,5.0,13.0,87,0.00,,,0.00,,2013-08-13 13:11:00,
2013-08-13 09:22:00,64.0,59.0,29.90,WNW,283,7.0,17.0,85,0.00,,,0.00,,2013-08-13 13:22:00,
2013-08-13 09:42:00,65.0,61.0,29.90,North,358,6.0,10.0,87,0.00,,,0.00,,2013-08-13 13:42:00,
2013-08-13 09:52:00,64.0,59.0,29.90,WNW,300,4.0,12.0,85,0.00,,,0.00,,2013-08-13 13:52:00,
2013-08-13 10:11:00,64.0,59.0,29.90,NNW,340,5.0,11.0,84,0.00,,,0.00,,2013-08-13 14:11:00,
2013-08-13 10:22:00,64.0,59.0,29.91,NNE,14,5.0,13.0,83,0.00,,,0.00,,2013-08-13 14:22:00,
2013-08-13 10:42:00,64.0,58.0,29.92,NNE,15,5.0,13.0,82,0.00,,,0.00,,2013-08-13 14:42:00,
2013-08-13 10:52:00,65.0,58.0,29.92,North,1,5.0,13.0,78,0.00,,,0.00,,2013-08-13 14:52:00,
2013-08-13 11:11:00,65.0,57.0,29.92,NNE,14,7.0,12.0,75,0.00,,,0.00,,2013-08-13 15:11:00,
2013-08-13 11:22:00,65.0,57.0,29.92,NE,36,5.0,10.0,76,0.00,,,0.00,,2013-08-13 15:22:00,
2013-08-13 11:44:00,66.0,58.0,29.93,North,11,4.0,11.0,76,0.00,,,0.00,,2013-08-13 15:44:00,
2013-08-13 11:54:00,66.0,57.0,29.93,North,359,7.0,14.0,72,0.00,,,0.00,,2013-08-13 15:54:00,
2013-08-13 12:13:00,66.0,56.0,29.93,NNE,13,5.0,12.0,70,0.00,,,0.00,,2013-08-13 16:13:00,
2013-08-13 12:23:00,66.0,56.0,29.93,North,9,3.0,11.0,71,0.00,,,0.00,,2013-08-13 16:23:00,
2013-08-13 12:54:00,67.0,55.0,29.93,WNW,297,6.0,11.0,66,0.00,,,0.00,,2013-08-13 16:54:00,
2013-08-13 13:16:00,68.0,56.0,29.93,NW,315,3.0,14.0,65,0.00,,,0.00,,2013-08-13 17:16:00,
2013-08-13 13:27:00,68.0,54.0,29.94,NNW,348,7.0,14.0,61,0.00,,,0.00,,2013-08-13 17:27:00,
2013-08-13 13:46:00,-999.0,-99.9,29.94,North,11,4.0,13.0,-999,0.00,,,0.00,,2013-08-13 17:46:00,
2013-08-13 13:56:00,69.0,55.0,29.94,North,352,3.0,11.0,61,0.00,,,0.00,,2013-08-13 17:56:00,
2013-08-13 14:15:00,69.0,55.0,29.94,North,354,3.0,11.0,62,0.00,,,0.00,,2013-08-13 18:15:00,
2013-08-13 14:25:00,69.0,53.0,29.94,WNW,285,4.0,16.0,57,0.00,,,0.00,,2013-08-13 18:25:00,
2013-08-13 14:44:00,69.0,54.0,29.94,NNW,340,5.0,12.0,58,0.00,,,0.00,,2013-08-13 18:44:00,
2013-08-13 14:56:00,69.0,53.0,29.94,NNE,19,3.0,13.0,56,0.00,,,0.00,,2013-08-13 18:56:00,
2013-08-13 15:14:00,69.0,53.0,29.94,North,1,6.0,13.0,56,0.00,,,0.00,,2013-08-13 19:14:00,
2013-08-13 15:25:00,71.0,55.0,29.94,NNW,347,3.0,11.0,57,0.00,,,0.00,,2013-08-13 19:25:00,
2013-08-13 15:44:00,70.0,54.0,29.94,NW,325,4.0,15.0,56,0.00,,,0.00,,2013-08-13 19:44:00,
2013-08-13 15:55:00,70.0,53.0,29.94,NNW,342,6.0,12.0,54,0.00,,,0.00,,2013-08-13 19:55:00,
2013-08-13 16:15:00,70.0,50.0,29.95,NNE,22,7.0,18.0,50,0.00,,,0.00,,2013-08-13 20:15:00,
2013-08-13 16:22:00,70.0,51.0,29.94,NNW,347,8.0,15.0,51,0.00,,,0.00,,2013-08-13 20:22:00,
2013-08-13 16:53:00,70.0,52.0,29.95,WNW,297,5.0,14.0,52,0.00,,,0.00,,2013-08-13 20:53:00,
2013-08-13 17:11:00,69.0,51.0,29.95,North,353,11.0,16.0,53,0.00,,,0.00,,2013-08-13 21:11:00,
2013-08-13 17:24:00,69.0,52.0,29.95,North,352,3.0,11.0,54,0.00,,,0.00,,2013-08-13 21:24:00,
2013-08-13 17:46:00,69.0,51.0,29.95,NNW,342,9.0,17.0,52,0.00,,,0.00,,2013-08-13 21:46:00,
2013-08-13 17:54:00,69.0,51.0,29.96,West,281,5.0,17.0,52,0.00,,,0.00,,2013-08-13 21:54:00,
2013-08-13 18:13:00,70.0,51.0,29.96,WSW,257,3.0,14.0,51,0.00,,,0.00,,2013-08-13 22:13:00,
2013-08-13 18:23:00,69.0,51.0,29.96,NNW,328,4.0,14.0,53,0.00,,,0.00,,2013-08-13 22:23:00,
2013-08-13 18:50:00,69.0,51.0,29.96,NW,319,7.0,14.0,53,0.00,,,0.00,,2013-08-13 22:50:00,
2013-08-13 18:57:00,68.0,51.0,29.97,NNW,347,4.0,9.0,54,0.00,,,0.00,,2013-08-13 22:57:00,
2013-08-13 19:13:00,67.0,50.0,29.97,North,11,5.0,13.0,55,0.00,,,0.00,,2013-08-13 23:13:00,
2013-08-13 19:26:00,67.0,51.0,29.97,NNW,333,3.0,13.0,56,0.00,,,0.00,,2013-08-13 23:26:00,
2013-08-13 19:47:00,67.0,51.0,29.97,North,352,6.0,15.0,56,0.00,,,0.00,,2013-08-13 23:47:00,
2013-08-13 19:57:00,66.0,51.0,29.97,NNE,13,2.0,16.0,59,0.00,,,0.00,,2013-08-13 23:57:00,
2013-08-13 20:11:00,66.0,51.0,29.98,North,354,4.0,10.0,58,0.00,,,0.00,,2013-08-14 00:11:00,
2013-08-13 20:22:00,65.0,49.0,29.98,NNE,26,4.0,7.0,57,0.00,,,0.00,,2013-08-14 00:22:00,
2013-08-13 20:42:00,64.0,49.0,29.97,WNW,302,2.0,7.0,59,0.00,,,0.00,,2013-08-14 00:42:00,
2013-08-13 20:52:00,63.0,50.0,29.98,WNW,297,0.0,3.0,63,0.00,,,0.00,,2013-08-14 00:52:00,
2013-08-13 21:11:00,62.0,51.0,29.98,NNW,338,0.0,1.0,67,0.00,,,0.00,,2013-08-14 01:11:00,
2013-08-13 21:21:00,62.0,51.0,29.98,WNW,293,0.0,3.0,68,0.00,,,0.00,,2013-08-14 01:21:00,
2013-08-13 21:42:00,61.0,51.0,29.98,WNW,290,0.0,1.0,69,0.00,,,0.00,,2013-08-14 01:42:00,
2013-08-13 21:52:00,60.0,51.0,29.99,NNW,339,0.0,1.0,72,0.00,,,0.00,,2013-08-14 01:52:00,
2013-08-13 22:02:00,60.0,51.0,29.99,NNW,339,0.0,1.0,72,0.00,,,0.00,,2013-08-14 02:02:00,
2013-08-13 22:11:00,60.0,51.0,29.99,NNW,339,0.0,1.0,72,0.00,,,0.00,,2013-08-14 02:11:00,
2013-08-13 22:22:00,59.0,51.0,30.00,WNW,302,0.0,1.0,74,0.00,,,0.00,,2013-08-14 02:22:00,
2013-08-13 22:42:00,59.0,51.0,30.01,WNW,285,0.0,2.0,75,0.00,,,0.00,,2013-08-14 02:42:00,
2013-08-13 22:52:00,59.0,51.0,30.01,NNW,345,0.0,3.0,75,0.00,,,0.00,,2013-08-14 02:52:00,
2013-08-13 23:11:00,59.0,51.0,30.01,North,358,0.0,3.0,76,0.00,,,0.00,,2013-08-14 03:11:00,
2013-08-13 23:22:00,58.0,51.0,30.01,NNW,328,0.0,3.0,77,0.00,,,0.00,,2013-08-14 03:22:00,
2013-08-13 23:43:00,58.0,51.0,30.01,WSW,253,0.0,1.0,78,0.00,,,0.00,,2013-08-14 03:43:00,
2013-08-13 23:53:00,58.0,52.0,30.02,West,281,0.0,5.0,80,0.00,,,0.00,,2013-08-14 03:53:00,